Powrót do katalogu

STARLINK-34010

AktywnyŁącznośćVLEO
NORAD 63848·PAYLOAD·🇺🇸 United States

Wystrzelony May 7, 2025 z Cape Canaveral Space Force Station

Loading…

Następne Przeloty (najbliższe 24 godziny)

TLE

ŚwieżeSource: CelesTrak SupGP

Epoka: Sep 15, 2026, 02:29 UTC

1 63848C 25093N   26258.10395833  .00007144  00000+0  25871-3 0  2582
2 63848  43.0034  88.1653 0001721 271.6490 350.1307 15.27581992    15

Śledź STARLINK-34010 w czasie rzeczywistym z AllMySat

Download on the App Store